SCP
0 0 0 0 0 0 0 0 0 0 0 0 0 0 0 0 0 0 0 0 0 0 0 0 0 0 0 0 0 0 0 0 0 0 0 0 0 0 0 0 0 0 0
0 0 0 0 0 0 0 0 0 0 0 0 0 0 0 0 0 0 0 0 0 0 0 0 0 0 0 0 0 0 0 0 0 0 0 0 0 0 0 0 0 0 0
0 0 0 0 0 0 0 0 0 0 0 0 0 0 0 0 0 0 0 0 0 0 0 0 0 0 0 0 0 0 0 0 0 0 0 0 0 0 0 0 0 0 0
0 0 0 0 0 0 0 0 0 0 0 0 0 0 0 0 0 0 0 0 0 0 0 0 0 0 0 0 0 0 0 0 0 0 0 0 0 0 0 0 0 0 0
0 0 0 0 0 0 0 0 0 0 0 0 0 0 0 0 0 0 0 0 0 0 0 0 0 0 0 0 0 0 0 0 0 0 0 0 0 0 0 0 0 0 0
0 0 0 0 0 0 0 0 0 0 0 0 0 0 0 0 0 0 0 0 0 0 0 0 0 0 0 0 0 0 0 0 0 0 0 0 0 0 0 0 0 0 0
0 0 0 0 0 0 0 0 0 0 0 0 0 0 0 0 0 0 0 0 0 0 0 0 0 0 0 0 0 0 0 0 0 0 0 0 0 0 0 0 0 0 0
0 0 0 0 0 0 0 0 0 0 0 0 0 0 0 0 0 0 0 0 0 0 0 0 0 0 0 0 0 0 0 0 0 0 0 0 0 0 0 0 0 0 0
0 0 0 0 0 0 0 0 0 0 0 0 0 0 0 0 0 0 0 0 0 0 0 0 0 0 0 0 0 0 0 0 0 0 0 0 0 0 0 0 0 0 0
0 0 0 0 0 0 0 0 0 0 0 0 0 0 0 0 0 0 0 0 0 0 0 0 0 0 0 0 0 0 0 0 0 0 0 0 0 0 0 0 0 0 0
0 0 0 0 0 0 0 0 0 0 0 0 0 0 0 0 0 0 0 0 0 0 0 0 0 0 0 0 0 0 0 0 0 0 0 0 0 0 0 0 0 0 0
0 0 0 0 0 0 0 0 0 0 0 0 0 0 0 0 0 0 0 0 0 0 0 0 0 0 0 0 0 0 0 0 0 0 0 0 0 0 0 0 0 0 0
0 0 0 0 0 0 0 0 0 0 0 0 0 0 0 0 0 0 0 0 0 0 0 0 0 0 0 0 0 0 0 0 0 0 0 0 0 0 0 0 0 0 0
0 1 1 1 1 0 0 0 0 0 0 0 0 0 0 0 0 0 0 0 0 0 0 0 0 0 0 0 0 0 0 0 0 0 0 0 0 0 0 0 0 0 0
0 1 1 1 1 0 0 0 0 0 0 0 0 0 0 0 0 0 0 0 0 0 0 0 0 0 0 0 0 0 0 0 0 0 0 0 0 0 0 0 0 0 0
0 1 1 1 1 1 0 0 0 1 1 1 1 0 0 0 0 0 0 0 0 0 0 0 0 0 0 0 0 0 0 0 0 0 0 0 0 0 0 0 0 0 0
1 1 1 1 1 1 1 1 1 1 1 1 1 1 1 1 1 1 1 1 1 1 1 0 0 0 0 0 0 0 0 0 0 0 0 0 0 0 0 0 0 0 0
1 1 1 1 1 1 1 1 1 1 1 1 1 1 1 1 1 1 1 1 1 1 1 1 1 1 1 1 1 0 0 0 0 0 0 0 0 0 0 0 0 0 0
1 1 1 1 1 1 1 1 1 1 1 1 1 1 1 1 1 1 1 1 1 1 1 1 1 1 1 1 1 1 1 0 0 0 0 0 0 0 0 0 0 0 0
1 1 1 1 1 1 1 1 1 1 1 1 1 1 1 1 1 1 1 1 1 1 1 1 1 1 1 1 1 1 1 1 0 0 0 0 0 0 0 0 0 0 0
1 1 1 1 1 1 1 1 1 1 1 1 1 1 1 1 1 1 1 1 1 1 1 1 1 1 1 1 1 1 1 1 1 0 0 0 0 0 0 0 0 0 0
1 1 1 1 1 1 1 0 1 1 1 1 1 1 1 1 1 1 0 0 0 1 1 1 1 1 1 1 1 1 1 1 1 1 1 1 0 0 0 0 0 0 0
2 2 2 2 1 1 1 0 0 1 1 1 1 1 1 1 1 1 0 0 0 0 0 1 1 1 1 1 1 1 1 1 1 1 1 1 1 1 0 0 0 0 0
2 2 2 2 2 1 1 0 0 1 1 1 1 1 1 1 1 1 1 1 1 0 0 0 1 1 1 1 1 1 1 1 1 1 1 1 1 1 1 0 0 0 0
2 2 2 2 2 1 1 0 0 1 1 1 1 1 1 0 0 0 1 1 1 1 1 0 0 1 1 1 1 1 1 1 1 1 1 1 1 1 1 0 0 0 0
2 2 2 2 2 2 1 0 0 1 1 1 1 1 0 0 0 0 0 1 1 1 1 1 0 0 0 0 0 1 1 1 1 1 1 1 1 1 1 0 0 0 0
Wind_Speed
4 4 3 3 3 3 3 2 2 3 3 2 2 3 3 3 5 6 6 13 13 11 11 10 9 9 8 8 8 7 7 7 6 6 7 7 7 6 6 6 6 6 5
4 4 4 3 3 3 3 2 3 3 2 2 2 3 3 3 4 5 6 8 11 11 10 10 9 9 8 8 8 7 7 7 6 6 6 6 6 6 6 6 6 6 6
4 3 3 3 3 3 3 2 2 2 2 3 2 2 2 2 3 4 5 5 6 9 10 9 9 8 8 8 8 7 7 7 7 6 6 6 7 7 6 6 5 5 5
4 3 3 3 3 3 3 3 2 2 2 2 2 2 2 2 3 3 4 5 5 6 8 10 9 9 9 9 8 8 7 7 7 7 7 7 7 6 6 6 6 5 5
3 2 2 3 3 2 2 3 3 2 2 2 2 2 2 2 3 4 4 5 5 5 5 8 10 9 9 9 8 8 8 7 7 7 7 7 7 6 6 6 6 5 5
3 2 3 4 3 2 2 2 3 2 1 1 2 2 2 2 2 2 3 3 4 5 6 7 6 6 9 9 8 8 8 7 7 7 7 7 7 6 6 6 6 6 6
3 2 2 3 2 2 2 3 3 3 2 2 2 2 1 1 2 2 2 2 3 3 4 5 5 5 5 9 8 8 8 8 8 7 7 6 6 6 6 6 5 5 6
3 3 2 2 3 3 3 3 2 2 1 2 2 2 1 1 1 2 2 3 3 3 3 5 4 4 4 4 6 10 9 8 8 8 7 6 6 5 5 6 6 6 5
3 1 3 2 2 2 3 3 3 3 2 2 1 1 1 1 1 1 2 2 2 3 3 3 5 5 5 4 4 8 10 9 9 8 7 6 6 5 5 5 6 6 6
3 3 2 2 1 1 2 3 3 2 2 2 1 1 1 1 1 1 1 2 3 3 3 3 4 4 4 4 5 7 10 10 9 9 8 7 6 6 5 5 6 6 6
3 3 3 3 2 1 2 2 2 2 1 1 1 1 1 1 1 2 2 2 2 2 3 3 2 2 4 4 4 7 10 10 9 8 7 7 6 6 6 5 6 6 6
3 3 3 3 3 2 2 2 2 2 2 1 1 1 1 1 2 2 2 2 2 3 3 2 3 3 3 4 6 9 11 10 9 8 7 7 7 6 6 6 6 6 6
3 3 3 3 3 2 2 2 2 2 2 2 2 2 2 2 1 1 1 2 2 2 2 3 3 4 5 4 4 10 10 11 10 9 8 7 7 6 6 6 6 5 6
2 4 3 3 3 3 3 2 1 2 2 2 3 2 2 2 1 1 1 1 1 2 2 3 2 4 3 4 5 9 7 11 10 9 8 8 7 7 6 6 6 5 4
2 4 4 3 3 3 2 2 2 2 1 2 3 3 2 2 2 2 1 2 2 2 3 2 2 3 3 3 6 5 5 10 11 10 9 9 8 8 7 7 6 6 5
1 3 3 3 3 3 2 2 2 2 3 3 3 3 3 3 2 2 2 2 2 2 3 2 1 2 2 3 6 5 5 10 11 11 10 10 10 9 9 8 8 7 6
2 2 3 3 3 3 3 3 3 3 3 3 3 4 4 3 2 2 2 2 2 2 3 2 1 2 2 2 3 3 4 5 6 11 11 11 11 10 10 9 9 8 7
2 2 2 2 3 3 2 3 4 3 3 3 3 3 3 3 3 3 2 2 2 2 3 3 2 2 2 3 3 4 4 5 5 9 12 12 11 11 11 10 10 9 9
3 2 2 2 2 2 2 2 3 3 3 3 3 3 4 3 3 3 3 3 2 3 2 3 3 2 2 3 3 3 4 3 5 6 10 11 12 12 12 12 11 11 10
3 3 3 3 2 2 2 2 3 3 3 3 4 4 4 4 4 4 4 3 3 3 2 2 2 2 2 2 3 3 3 3 4 4 5 7 10 12 13 13 12 12 11
4 3 3 2 2 2 2 2 3 3 3 3 3 3 4 4 4 3 3 3 3 3 2 3 3 2 2 2 3 3 3 3 3 3 3 4 5 6 8 11 13 14 13
3 3 3 3 3 3 2 2 1 2 2 2 3 3 3 2 3 3 4 4 4 4 3 3 3 3 3 3 3 3 3 3 3 3 3 4 4 5 6 7 12 15 16
4 3 3 3 3 2 1 1 2 2 2 3 3 2 4 3 2 2 4 5 5 6 6 4 5 5 4 4 4 5 4 4 4 3 3 4 4 5 5 7 12 15 16
4 4 4 4 3 2 2 2 2 3 3 3 3 3 3 2 2 2 3 3 4 4 6 6 6 6 5 3 5 5 5 4 4 3 3 4 4 5 5 4 10 14 15
3 3 3 3 3 2 2 3 2 3 3 4 3 3 3 2 2 3 3 3 3 4 5 5 6 6 7 7 5 3 4 4 4 4 3 4 4 4 4 4 7 12 13
3 3 3 3 3 3 4 4 3 2 3 3 3 2 3 2 2 2 2 4 5 4 4 4 4 6 6 7 8 6 5 5 4 4 4 4 4 3 3 3 4 5 7
Wind_Direction
118 118 117 123 130 121 122 122 121 119 111 111 115 122 103 112 115 119 136 151 152 156 161 166 174 178 179 181 182 183 185 188 189 186 191 195 197 199 205 210 209 205 205
117 119 125 124 123 123 128 126 125 114 106 91 85 91 92 89 106 122 136 151 157 161 166 174 180 184 185 185 186 187 190 190 185 184 191 196 200 205 209 213 212 210 211
119 125 128 132 127 123 123 124 120 118 126 122 117 114 105 109 122 128 143 152 162 170 177 182 183 185 187 188 189 192 195 192 191 193 197 200 204 207 210 212 209 207 209
127 128 131 133 125 130 129 133 145 134 118 119 127 141 136 148 151 155 159 160 166 169 181 186 184 186 188 189 190 192 194 196 198 200 203 206 209 211 210 209 208 205 203
138 143 121 113 136 141 144 154 129 124 115 124 149 164 169 166 161 175 165 169 166 160 165 178 183 185 189 191 195 196 198 200 202 204 207 210 212 213 209 207 206 207 206
141 140 133 141 160 141 132 119 119 129 121 169 180 132 150 163 166 174 170 166 162 167 167 171 179 191 196 196 198 201 204 208 207 207 211 213 216 210 203 203 207 212 213
137 152 131 139 160 135 145 147 143 146 163 167 134 112 139 190 167 155 165 160 162 168 171 170 177 182 189 196 198 200 205 211 209 206 210 211 207 201 203 206 207 214 216
149 158 150 162 162 147 160 163 154 146 188 187 167 144 148 150 190 178 170 180 182 179 181 182 177 183 181 175 192 200 206 208 204 202 200 195 194 196 200 205 211 212 213
155 162 149 167 153 168 167 172 181 182 190 226 212 176 170 171 164 193 190 177 178 181 187 183 187 183 182 170 181 198 202 202 200 198 199 195 192 194 199 205 211 214 214
162 164 161 161 168 185 157 185 177 197 190 222 225 204 182 148 158 162 202 180 194 204 202 205 191 180 178 167 172 182 197 197 197 200 202 198 196 196 203 212 217 217 219
179 173 165 165 176 190 183 183 137 186 217 238 248 211 181 193 193 171 192 197 211 212 204 209 186 186 190 177 175 182 185 188 190 192 194 196 199 200 206 214 222 224 226
178 188 179 172 180 191 194 186 184 201 215 251 281 282 231 216 208 192 194 202 212 220 206 208 190 181 197 189 190 181 177 179 181 185 191 196 199 205 212 214 221 226 229
178 186 186 175 191 194 194 192 193 223 214 217 241 263 270 257 235 216 195 215 224 229 211 218 204 194 197 179 184 179 179 179 180 185 192 195 200 207 210 211 212 218 226
181 165 174 177 195 197 207 195 214 217 215 227 247 253 262 270 259 229 210 201 241 247 224 229 205 196 189 173 179 177 174 179 181 185 191 195 200 206 207 205 204 207 213
185 155 169 177 192 199 208 198 224 233 222 222 237 240 246 259 261 250 228 218 220 250 248 230 214 189 173 169 169 177 173 180 182 187 191 196 202 203 201 201 204 204 204
203 163 174 184 192 195 196 203 227 224 218 224 227 234 238 249 246 242 237 238 232 239 259 243 223 188 180 187 176 180 181 179 188 192 197 200 203 203 203 204 203 203 204
208 197 192 191 196 196 198 203 227 224 224 230 237 232 236 246 255 258 242 232 230 220 249 261 239 196 190 188 173 187 183 186 191 197 200 202 204 205 205 204 203 203 205
192 199 203 201 208 203 203 213 234 235 231 234 245 246 244 245 245 257 267 259 245 224 226 242 238 209 204 189 180 201 201 204 197 200 202 203 204 205 206 206 206 206 208
185 191 183 192 205 214 215 226 239 247 245 238 240 243 247 242 241 243 245 258 257 253 226 234 235 213 201 193 183 209 221 219 215 202 202 205 207 208 209 210 210 210 211
186 197 189 196 207 225 228 238 245 245 247 247 243 241 243 239 237 243 243 247 259 264 242 242 235 212 206 198 190 211 226 224 230 218 205 203 207 211 214 214 212 212 214
198 194 197 203 215 225 241 250 247 238 245 252 251 245 243 241 232 240 255 250 249 250 250 246 243 229 222 197 213 226 231 230 232 216 201 207 203 209 214 217 216 216 214
200 197 200 204 219 240 263 235 247 264 264 267 271 273 254 244 232 231 250 262 254 245 249 253 256 243 227 213 213 226 233 241 246 218 214 229 211 214 213 210 210 211 212
199 203 206 208 206 235 269 187 243 251 257 260 263 272 274 268 246 244 244 255 255 246 236 241 252 252 241 220 216 228 228 231 239 229 217 237 226 230 224 223 208 209 210
202 204 212 216 210 216 197 194 252 230 253 253 246 249 258 272 274 277 248 246 249 244 238 237 248 258 257 241 224 226 232 239 242 229 208 240 233 236 240 225 208 208 210
203 206 207 211 212 192 169 177 206 244 256 266 256 257 253 239 249 270 264 258 257 259 259 262 251 249 247 244 239 233 231 233 251 241 212 229 241 244 237 227 216 209 212
213 220 219 211 206 187 177 183 198 252 265 268 256 245 246 241 241 241 253 262 262 266 276 273 262 258 252 242 229 225 228 232 242 244 215 218 239 237 249 230 210 205 214